Miscellaneous Local Product
Issued by NWS North Platte, NE

Home | Current Version | Previous Version | Text Only | Print | Product List | Glossary On
Versions: 1 2 3 4 5 6 7 8 9 10 11 12 13 14 15 16 17 18 19 20 21 22 23 24 25 26 27 28 29 30 31 32 33 34 35 36 37 38 39 40 41 42 43 44 45 46 47 48 49 50
000
AXUS43 KLBF 270610
MISLBF


WESTERN AND NORTH CENTRAL NEBRASKA HOURLY WEATHER ROUNDUP
NATIONAL WEATHER SERVICE NORTH PLATTE NE
100 AM CDT SAT MAY 27 2017

NOTE: "FAIR" INDICATES FEW OR NO CLOUDS BELOW 12,000 FEET WITH NO
SIGNIFICANT WEATHER AND/OR OBSTRUCTIONS TO VISIBILITY.

NOTE: STATIONS NOT REPORTING VARIABLES SUCH AS SKY/WEATHER OR
PRESSURE ARE PROVIDED BY RAWS AND APRS NETWORKS AND ARE NOT UNDER
NATIONAL WEATHER SERVICE QUALITY CONTROL.

...OBSERVATIONS IN AND NEAR THE EASTERN PANHANDLE OF NEBRASKA...

CITY           SKY/WX    TMP DP  RH WIND       PRES   REMARKS
PINE RIDGE     CLOUDY    51  50  96 SE8       29.96F
GORDON         LGT RAIN  51  48  91 NE3       29.98F
CHADRON        CLOUDY    51  47  86 VRB6      29.97F
ALLIANCE       CLOUDY    50  49  96 N9        29.99R
SIDNEY         CLOUDY    51  50  96 N14       29.97F
CRESCENT LAKE    N/A     51  50  98 NE10G22     N/A
$$

...OBSERVATIONS IN NORTHERN NEBRASKA AND FAR SOUTHERN SOUTH DAKOTA...

CITY           SKY/WX    TMP DP  RH WIND       PRES   REMARKS
WINNER         MOCLDY    58  47  66 SW5       29.93R
VALENTINE      LGT RAIN  55  49  80 N6        29.96F
THEDFORD       HVY RAIN  55  52  90 W7        30.01R
AINSWORTH      LGT RAIN  59  49  68 W5        29.96R
O`NEILL        CLOUDY    59  48  66 CALM      29.95R
ORD            MOCLDY    58  45  62 E3        29.91S
BROKEN BOW     CLOUDY    62  46  55 E9        29.91R
VALENTINE NWR    N/A     56  48  74 NW6         N/A
HALSEY           N/A     60  43  54 CALM        N/A
BUTTE            N/A     62  41  46 CALM        N/A
CHAMBERS         N/A     59  47  63 CALM        N/A
EWING            N/A     58  49  72 CALM        N/A
$$

...OBSERVATIONS IN SOUTHWEST NEBRASKA AND FAR NORTHEAST COLORADO...

CITY           SKY/WX    TMP DP  RH WIND       PRES   REMARKS
WRAY           FAIR      55  48  76 N8        29.91R
IMPERIAL       CLOUDY    57  49  74 S12G24    29.90R
OGALLALA       LGT RAIN  55  54  94 N20G25    29.95R
NORTH PLATTE   LGT RAIN  62  55  77 S16G22    29.92R
MCCOOK         RAIN      59  55  87 W5        29.95S FOG
LEXINGTON      LGT RAIN  61  51  69 CALM      29.93R
STAPLETON        N/A     56  52  86 CALM        N/A
GOTHENBURG       N/A     62  47  58 E5          N/A
CALLAWAY         N/A     60  48  64 E10         N/A
$$

...OBSERVATIONS IN CENTRAL LINCOLN COUNTY AREA...

CITY           SKY/WX    TMP DP  RH WIND       PRES   REMARKS
N.P. AIRPORT   LGT RAIN  62  55  77 S16G22    29.92R
N.P. DOWNTOWN    N/A     61  55  82 CALM        N/A
N.P. SOUTHEAST   N/A     61  54  78 S6G16       N/A
N.P. HILLCREST   N/A     61  54  76 S9G18       N/A
$$

...SOME OBSERVATIONS FROM AROUND THE REGION...

CITY           SKY/WX    TMP DP  RH WIND       PRES   REMARKS
DENVER         CLOUDY    50  44  80 N12       30.05R
LIMON          CLOUDY    50  48  93 N16       29.98R
ASPEN          CLOUDY    50  21  32 S8G26     30.01S
LARAMIE        CLOUDY    36  34  92 S3        30.05R
CASPER         CLOUDY    44  41  89 CALM      30.05R
CHEYENNE       CLOUDY    43  41  93 N7        30.03F
SCOTTSBLUFF    CLOUDY    50  46  86 CALM      29.99F
GRAND ISLAND   CLOUDY    59  48  67 NE8       29.92S
OMAHA          CLOUDY    60  51  72 N6        29.87R
SIOUX FALLS    CLEAR     52  44  74 CALM      29.90R
PIERRE         CLOUDY    61  40  45 W13       29.90S
RAPID CITY     LGT RAIN  51  48  89 NW6       30.00S
BISMARCK       CLOUDY    53  38  56 SW5       29.86S
KANSAS CITY    CLEAR     69  63  81 SE8       29.84S
HILL CITY      CLOUDY    67  56  67 NE8       29.87S
WICHITA        CLEAR     70  63  78 SE7       29.82F
DODGE CITY     CLEAR     66  58  75 SE12      29.80F
OKLAHOMA CITY  CLEAR     74  68  81 E9        29.81S
DALLAS         MOCLDY    81  74  79 S13       29.80S
AMARILLO       CLEAR     69  53  56 SE14      29.85F
$$




USA.gov is the U.S. government's official web portal to all federal, state and local government web resources and services.